Change the Weather History Date:

Monday, February 17, 2014

  Actual Average Record
Temperature  
Mean Temperature 18 °F -  
Max Temperature 28 °F 36 °F 57 °F (2011)
Min Temperature 6 °F 21 °F 6 °F (2014)
Degree Days  
Heating Degree Days 47    
Moisture  
Dew Point -3 °F    
Average Humidity 40    
Maximum Humidity 58    
Minimum Humidity 28    
Precipitation  
Precipitation 0.00 in - - ()
Sea Level Pressure  
Sea Level Pressure 30.20 in    
Wind  
Wind Speed 10 mph (NW)    
Max Wind Speed 21 mph    
Max Gust Speed 28 mph    
Visibility 10 miles    
Events      
Averages and records for this station are not official NWS values.
T = Trace of Precipitation, MM = Missing Value Source: NWS Daily Summary

Daily Weather History Graph

Daily Weather History Graph

Search for Another Location

Airport or City:

Trip Planner

Search our weather history database for the weather conditions in past years. The results will help you decide how hot, cold, wet, or windy it might be!

Date:

Astronomy

Feb. 17, 2014 Rise Set
Actual Time 6:39 AM EST 5:21 PM EST
Civil Twilight 6:10 AM EST 5:50 PM EST
Nautical Twilight 5:37 AM EST 6:22 PM EST
Astronomical Twilight 5:05 AM EST 6:54 PM EST
Moon 8:16 PM EST (2/17) 7:34 AM EST (2/17)
Length of Visible Light 11h 39m
Length of Day
10h 42m
Waning Gibbous, 93% of the Moon is Illuminated
Feb 17
Waning Gibbous
Feb 22
Last Quarter
Mar 1
New
Mar 8
First Quarter
Mar 16
Full

Hourly Weather History & Observations

Time (EST) Temp. Windchill Dew Point Humidity Pressure Visibility Wind Dir Wind Speed Gust Speed Precip Events Conditions
12:15 AM 19.4 °F 9.5 °F 6.8 °F 58% 29.97 in 10.0 mi WNW 8.1 mph - N/A   Partly Cloudy
12:35 AM 19.4 °F 9.5 °F 5.0 °F 54% 29.98 in 10.0 mi NW 8.1 mph - N/A   Clear
12:55 AM 19.4 °F 8.6 °F 5.0 °F 54% 29.98 in 10.0 mi NW 9.2 mph - N/A   Clear
1:15 AM 19.4 °F 8.6 °F 3.2 °F 49% 29.99 in 10.0 mi NW 9.2 mph - N/A   Clear
1:35 AM 17.6 °F 6.4 °F 3.2 °F 53% 30.00 in 10.0 mi WNW 9.2 mph - N/A   Clear
1:55 AM 17.6 °F 5.0 °F 3.2 °F 53% 30.01 in 10.0 mi NW 11.5 mph - N/A   Clear
2:15 AM 17.6 °F 6.4 °F 1.4 °F 49% 30.01 in 10.0 mi WNW 9.2 mph 16.1 mph N/A   Clear
2:35 AM 15.8 °F 3.4 °F 1.4 °F 53% 30.02 in 10.0 mi WNW 10.4 mph - N/A   Clear
2:55 AM 15.8 °F 4.2 °F -0.4 °F 49% 30.02 in 10.0 mi WNW 9.2 mph - N/A   Clear
3:15 AM 15.8 °F 4.2 °F 1.4 °F 53% 30.03 in 10.0 mi WNW 9.2 mph - N/A   Clear
3:35 AM 15.8 °F 3.4 °F -0.4 °F 49% 30.04 in 10.0 mi WNW 10.4 mph - N/A   Clear
3:55 AM 14.0 °F 2.0 °F -2.2 °F 49% 30.05 in 10.0 mi WNW 9.2 mph - N/A   Clear
4:15 AM 14.0 °F 1.2 °F -2.2 °F 49% 30.06 in 10.0 mi WNW 10.4 mph - N/A   Clear
4:35 AM 12.2 °F 1.7 °F -2.2 °F 53% 30.06 in 10.0 mi WNW 6.9 mph - N/A   Clear
4:55 AM 12.2 °F 0.7 °F -2.2 °F 53% 30.08 in 10.0 mi WNW 8.1 mph - N/A   Clear
5:15 AM 12.2 °F -0.2 °F -4.0 °F 48% 30.08 in 10.0 mi WNW 9.2 mph - N/A   Clear
5:35 AM 12.2 °F -1.0 °F -5.8 °F 45% 30.09 in 10.0 mi WNW 10.4 mph 18.4 mph N/A   Clear
5:55 AM 10.4 °F -4.1 °F -5.8 °F 48% 30.10 in 10.0 mi WNW 11.5 mph - N/A   Clear
6:15 AM 10.4 °F -4.1 °F -5.8 °F 48% 30.11 in 10.0 mi WNW 11.5 mph 16.1 mph N/A   Clear
6:35 AM 10.4 °F -2.4 °F -5.8 °F 48% 30.12 in 10.0 mi NW 9.2 mph 16.1 mph N/A   Clear
6:55 AM 10.4 °F -2.4 °F -5.8 °F 48% 30.13 in 10.0 mi NW 9.2 mph 17.3 mph N/A   Clear
7:15 AM 10.4 °F -5.4 °F -5.8 °F 48% 30.14 in 10.0 mi NW 13.8 mph - N/A   Clear
7:35 AM 12.2 °F -0.2 °F -4.0 °F 48% 30.16 in 10.0 mi NW 9.2 mph 17.3 mph N/A   Clear
7:55 AM 12.2 °F -1.8 °F -5.8 °F 45% 30.18 in 10.0 mi NW 11.5 mph 18.4 mph N/A   Clear
8:15 AM 12.2 °F -1.8 °F -5.8 °F 45% 30.19 in 10.0 mi NW 11.5 mph 16.1 mph N/A   Clear
8:35 AM 14.0 °F -1.4 °F -5.8 °F 41% 30.19 in 10.0 mi NNW 15.0 mph 20.7 mph N/A   Clear
8:55 AM 15.8 °F 2.7 °F -5.8 °F 38% 30.20 in 10.0 mi NW 11.5 mph - N/A   Clear
9:15 AM 15.8 °F 1.4 °F -5.8 °F 38% 30.21 in 10.0 mi NW 13.8 mph 18.4 mph N/A   Clear
9:35 AM 17.6 °F 5.7 °F -5.8 °F 35% 30.21 in 10.0 mi NW 10.4 mph 19.6 mph N/A   Clear
9:55 AM 17.6 °F 5.0 °F -2.2 °F 42% 30.22 in 10.0 mi NW 11.5 mph 21.9 mph N/A   Clear
10:15 AM 19.4 °F 5.0 °F -4.0 °F 36% 30.22 in 10.0 mi NW 16.1 mph 20.7 mph N/A   Clear
10:35 AM 19.4 °F 6.6 °F -4.0 °F 36% 30.24 in 10.0 mi NW 12.7 mph 19.6 mph N/A   Clear
10:55 AM 21.2 °F 7.8 °F -2.2 °F 36% 30.24 in 10.0 mi NW 15.0 mph 20.7 mph N/A   Clear
11:15 AM 21.2 °F 8.9 °F -2.2 °F 36% 30.24 in 10.0 mi WNW 12.7 mph - N/A   Clear
11:35 AM 23.0 °F 10.6 °F -0.4 °F 36% 30.24 in 10.0 mi NW 13.8 mph 23.0 mph N/A   Clear
11:55 AM 24.8 °F 11.1 °F -0.4 °F 34% 30.24 in 10.0 mi NNW 18.4 mph 25.3 mph N/A   Clear
12:15 PM 24.8 °F 11.9 °F -0.4 °F 34% 30.24 in 10.0 mi NW 16.1 mph 24.2 mph N/A   Clear
12:35 PM 24.8 °F 12.4 °F -0.4 °F 34% 30.24 in 10.0 mi NW 15.0 mph 20.7 mph N/A   Clear
12:55 PM 26.6 °F 12.7 °F -0.4 °F 31% 30.24 in 10.0 mi NNW 20.7 mph 27.6 mph N/A   Clear
1:15 PM 26.6 °F 13.1 °F 1.4 °F 34% 30.24 in 10.0 mi NNW 19.6 mph 26.5 mph N/A   Clear
1:35 PM 26.6 °F 13.8 °F -0.4 °F 31% 30.24 in 10.0 mi NW 17.3 mph 25.3 mph N/A   Clear
1:55 PM 26.6 °F 14.3 °F -0.4 °F 31% 30.24 in 10.0 mi NNW 16.1 mph 25.3 mph N/A   Clear
2:15 PM 26.6 °F 13.8 °F 1.4 °F 34% 30.25 in 10.0 mi NW 17.3 mph 20.7 mph N/A   Clear
2:35 PM 26.6 °F 14.3 °F -0.4 °F 31% 30.25 in 10.0 mi WNW 16.1 mph 20.7 mph N/A   Clear
2:55 PM 26.6 °F 15.7 °F -0.4 °F 31% 30.26 in 10.0 mi NW 12.7 mph 19.6 mph N/A   Clear
3:15 PM 26.6 °F 14.7 °F -0.4 °F 31% 30.26 in 10.0 mi West 15.0 mph 20.7 mph N/A   Clear
3:35 PM 28.4 °F 19.7 °F -0.4 °F 29% 30.27 in 10.0 mi WNW 9.2 mph - N/A   Clear
3:55 PM 26.6 °F 15.2 °F -2.2 °F 29% 30.27 in 10.0 mi WNW 13.8 mph - N/A   Clear
4:15 PM 26.6 °F 16.2 °F -2.2 °F 29% 30.28 in 10.0 mi NW 11.5 mph - N/A   Clear
4:35 PM 26.6 °F 16.8 °F -2.2 °F 29% 30.29 in 10.0 mi NNW 10.4 mph - N/A   Clear
4:55 PM 24.8 °F 14.6 °F -2.2 °F 31% 30.29 in 10.0 mi NNW 10.4 mph 18.4 mph N/A   Clear
5:15 PM 24.8 °F 15.3 °F -4.0 °F 28% 30.30 in 10.0 mi NW 9.2 mph - N/A   Clear
5:35 PM 23.0 °F 17.0 °F -5.8 °F 28% 30.31 in 10.0 mi WNW 4.6 mph - N/A   Clear
5:55 PM 21.2 °F 13.6 °F -5.8 °F 30% 30.31 in 10.0 mi NW 5.8 mph - N/A   Clear
6:15 PM 21.2 °F 12.6 °F -5.8 °F 30% 30.31 in 10.0 mi NW 6.9 mph - N/A   Clear
6:35 PM 21.2 °F 12.6 °F -5.8 °F 30% 30.31 in 10.0 mi WNW 6.9 mph - N/A   Clear
6:55 PM 19.4 °F 12.8 °F -7.6 °F 30% 30.32 in 10.0 mi NW 4.6 mph - N/A   Clear
7:15 PM 19.4 °F 10.4 °F -5.8 °F 33% 30.32 in 10.0 mi WNW 6.9 mph - N/A   Clear
7:35 PM 17.6 °F 9.3 °F -7.6 °F 32% 30.32 in 10.0 mi NNW 5.8 mph - N/A   Clear
7:55 PM 17.6 °F 9.3 °F -5.8 °F 35% 30.33 in 10.0 mi NNW 5.8 mph - N/A   Clear
8:15 PM 17.6 °F 9.3 °F -7.6 °F 32% 30.33 in 10.0 mi NNW 5.8 mph - N/A   Clear
8:35 PM 17.6 °F 9.3 °F -7.6 °F 32% 30.33 in 10.0 mi NNW 5.8 mph - N/A   Clear
8:55 PM 15.8 °F 8.6 °F -7.6 °F 35% 30.33 in 10.0 mi NNW 4.6 mph - N/A   Clear
9:15 PM 15.8 °F 8.6 °F -9.4 °F 32% 30.33 in 10.0 mi NNE 4.6 mph - N/A   Clear
9:35 PM 14.0 °F 6.5 °F -5.8 °F 41% 30.32 in 10.0 mi North 4.6 mph - N/A   Clear
9:55 PM 14.0 °F 5.1 °F -7.6 °F 38% 30.30 in 10.0 mi North 5.8 mph - N/A   Clear
10:15 PM 12.2 °F - -7.6 °F 41% 30.30 in 10.0 mi Calm Calm - N/A   Clear
10:35 PM 10.4 °F - -9.4 °F 41% 30.30 in 10.0 mi Calm Calm - N/A   Clear
10:55 PM 8.6 °F - -9.4 °F 44% 30.32 in 10.0 mi Calm Calm - N/A   Clear
11:15 PM 10.4 °F - -5.8 °F 48% 30.33 in 10.0 mi Calm Calm - N/A   Clear
11:35 PM 8.6 °F - -9.4 °F 44% 30.33 in 10.0 mi Calm Calm - N/A   Clear
11:55 PM 6.8 °F - -7.6 °F 52% 30.33 in 10.0 mi Calm Calm - N/A   Clear